Regional Weather Roundup
Issued by NWS

Home | Current Version | Previous Version | Graphics & Text | Print | Product List | Glossary On
Versions: 1 2 3 4 5 6 7 8 9 10 11 12 13 14 15 16 17 18 19 20 21 22 23 24 25 26 27 28 29 30 31 32 33 34 35 36 37 38 39 40 41 42 43 44 45 46 47 48 49 50
027
ASUS45 KABQ 260210
RWRNM
NEW MEXICO REGIONAL WEATHER ROUNDUP
NATIONAL WEATHER SERVICE ALBUQUERQUE NM
800 PM MDT SUN JUN 25 2017

NOTE: "FAIR" MEANS FEW OR NO CLOUDS BELOW 12,000 FEET AGL WITH NO
       SIGNIFICANT WEATHER OR OBSTRUCTIONS TO VISION.

      THIS PRODUCT IS RELEASED AS TWO VERSIONS.  ONE VERSION NEAR
      THE TOP OF THE HOUR CONTAINING PRELIMINARY DATA FROM ALBUQUERQUE
      AND OTHER STATIONS.  A FINAL VERSION WITH ADDITIONAL DATA IS
      ISSUED ABOUT 10 MINUTES AFTER THE HOUR.

NMZ501-503-504-510>518-260300-
NORTHWEST PLATEAU/NORTHCENTRAL MOUNTAINS

CITY           SKY/WX    TMP DP  RH WIND       PRES   REMARKS
FARMINGTON     FAIR      88  24  10 W14       30.09S
LOS ALAMOS     FAIR      67  46  46 SW12G23   30.30R
SANTA FE       FAIR      69  50  50 W17       30.26R
TAOS           FAIR      68  48  49 E14       30.32R
ANGEL FIRE     FAIR      58  51  79 S14       30.43F

$$
NMZ402-403-502-505>509-260300-
WESTCENTRAL MOUNTAINS/SOUTHWEST MOUNTAINS

CITY           SKY/WX    TMP DP  RH WIND       PRES   REMARKS
GALLUP         MOCLDY    76  44  32 SE16G23   30.28R
GRANTS         MOCLDY    63  56  76 SE9       30.37F
SILVER CITY    FAIR      79  46  30 NE13      30.21F

$$
NMZ407-409-411-412-260300-
SOUTHERN DESERTS

CITY           SKY/WX    TMP DP  RH WIND       PRES   REMARKS
DEMING         FAIR      89  49  25 E7        30.12R
LAS CRUCES     FAIR      82  52  35 SE12G21   30.16R
HOLLOMAN AFB   RAIN      72  61  68 N20       30.26R
ALAMOGORDO     MOCLDY    75  54  46 N20G31    30.24R
T OR C         FAIR      80  45  28 W18G33    30.15F

$$
NMZ519>523-260300-
CENTRAL VALLEYS/CENTRAL HIGHLANDS

CITY           SKY/WX    TMP DP  RH WIND       PRES   REMARKS
ALBUQUERQUE    MOCLDY    71  52  50 S14       30.22F
DOUBLE EAGLE   MOCLDY    68  52  56 MISG      30.26F
MORIARTY ARPT  FAIR      68  54  61 SE15      30.29F
CLINES CORNERS MOCLDY    57  54  89 S17       30.34F
BELEN          FAIR      67  57  69 N3G9      30.21F
SOCORRO        FAIR      68  57  68 N3        30.21S

$$
NMZ524>526-539-540-260300-
SOUTHCENTRAL MOUNTAINS

CITY           SKY/WX    TMP DP  RH WIND       PRES   REMARKS
RUIDOSO        RAIN      55  54  94 NW8G20    30.47R

$$
NMZ527>531-260300-
NORTHEAST HIGHLANDS/NORTHEAST PLAINS

CITY           SKY/WX    TMP DP  RH WIND       PRES   REMARKS
LAS VEGAS      MOCLDY    57  51  80 N17       30.42R THUNDER
RATON          FAIR      64  61  90 W7        30.30R
CLAYTON        RAIN      61  60  97 E14G29    30.24R FOG

$$
NMZ532>537-260300-
EASTCENTRAL PLAINS

CITY           SKY/WX    TMP DP  RH WIND       PRES   REMARKS
SANTA ROSA     LGT RAIN  61  57  87 SW17G31   30.24R
TUCUMCARI      TSTM      77  64  64 CALM      30.17R
CANNON AFB     MOCLDY    75  66  73 SE8       30.19R
CLOVIS AIRPORT CLOUDY    78  62  57 S8        30.18S

$$
NMZ028-029-538-260300-
SOUTHEAST PLAINS

CITY           SKY/WX    TMP DP  RH WIND       PRES   REMARKS
ROSWELL        FAIR      86  55  34 S10       30.12R
ARTESIA        FAIR      86  57  37 S14       30.12R
CARLSBAD       FAIR      88  56  33 SE12      30.09R


$$




USA.gov is the U.S. government's official web portal to all federal, state and local government web resources and services.